Location: Emblem
(62.4273°N, 6.4710°E)
Time: 05:56:10
(UTC+02:00)

Transit 2A - Pass Details

Date: 03 March 2024
Orbit: 596 x 956 km, 66.7° (Epoch: 24 April)

Event Time Altitude Azimuth Distance (km) Brightness Sun altitude
Rises 23:36:56 0° 289° (WNW) 2,884 9.5 -32.5°
Reaches altitude 10° 23:39:10 10° 294° (WNW) 2,006 8.6 -32.6°
Enters shadow 23:40:54 23° 302° (WNW) 1,373 7.7 -32.7°
